User: anonymous   Login
Location: Vancouver
(49.2500°N, 123.1330°W)
Time: 08:39:54
(UTC-08:00)
Language:

Cosmos 1864 Rocket - Orbit

View from above orbital plane
View from above orbital plane
View from above satellite
View from above satellite

Ground track
Ground track

The orbit data is extracted from the following two-line orbital elements,

1 18161U 87057B   15031.03009850  .00000107  00000-0  93424-4 0  6451
2 18161 082.9366 357.9286 0030465 220.8159 206.2387 13.76883962364754
Epoch (UTC): 31 January 2015 00:43:20
Eccentricity: 0.0030465
inclination: 82.9366°
perigee height: 952 km
apogee height: 997 km
right ascension of ascending node: 357.9286°
argument of perigee: 220.8159°
revolutions per day: 13.76883962
mean anomaly at epoch: 206.2387°
orbit number at epoch: 36475

The dashed part of the orbit path shows where the satellite is in the earth's shadow,  

DLR